Time,TemperatureF,DewpointF,PressureIn,WindDirection,WindDirectionDegrees,WindSpeedMPH,WindSpeedGustMPH,Humidity,HourlyPrecipIn,Conditions,Clouds,dailyrainin,SoftwareType,DateUTC
2013-06-04 00:03:00,74.0,73.0,-100.00,SE,133,2.0,3.0,97,-99.99,,,-99.99,,2013-06-04 04:03:00,
2013-06-04 00:13:00,74.0,73.0,-100.00,SE,133,2.0,3.0,97,-99.99,,,-99.99,,2013-06-04 04:13:00,
2013-06-04 00:23:00,74.0,73.0,-100.00,SSW,208,4.0,9.0,97,-99.99,,,-99.99,,2013-06-04 04:23:00,
2013-06-04 00:33:00,72.0,71.0,-100.00,SW,235,5.0,11.0,96,-99.99,,,-99.99,,2013-06-04 04:33:00,
2013-06-04 00:42:00,72.0,71.0,-100.00,SW,235,5.0,11.0,96,-99.99,,,-99.99,,2013-06-04 04:42:00,
2013-06-04 00:53:00,72.0,71.0,-100.00,SW,235,5.0,11.0,96,-99.99,,,-99.99,,2013-06-04 04:53:00,
2013-06-04 01:02:00,72.0,71.0,-100.00,SE,136,2.0,4.0,96,-99.99,,,-99.99,,2013-06-04 05:02:00,
2013-06-04 01:12:00,72.0,71.0,-100.00,SE,136,2.0,4.0,96,-99.99,,,-99.99,,2013-06-04 05:12:00,
2013-06-04 01:22:00,72.0,71.0,-100.00,East,80,1.0,3.0,96,-99.99,,,-99.99,,2013-06-04 05:22:00,
2013-06-04 01:32:00,72.0,71.0,-100.00,NE,54,1.0,3.0,97,-99.99,,,-99.99,,2013-06-04 05:32:00,
2013-06-04 01:42:00,72.0,71.0,-100.00,NE,54,1.0,3.0,97,-99.99,,,-99.99,,2013-06-04 05:42:00,
2013-06-04 01:52:00,72.0,71.0,-100.00,NE,54,1.0,3.0,97,-99.99,,,-99.99,,2013-06-04 05:52:00,
2013-06-04 02:02:00,72.0,71.0,-100.00,East,97,1.0,3.0,97,-99.99,,,-99.99,,2013-06-04 06:02:00,
2013-06-04 02:12:00,72.0,71.0,-100.00,East,97,1.0,3.0,97,-99.99,,,-99.99,,2013-06-04 06:12:00,
2013-06-04 02:22:00,72.0,71.0,-100.00,South,182,9.0,25.0,97,-99.99,,,-99.99,,2013-06-04 06:22:00,
2013-06-04 02:32:00,72.0,71.0,-100.00,South,182,9.0,25.0,97,-99.99,,,-99.99,,2013-06-04 06:32:00,
2013-06-04 02:42:00,72.0,71.0,-100.00,SSW,202,6.0,11.0,97,-99.99,,,-99.99,,2013-06-04 06:42:00,
2013-06-04 02:52:00,72.0,71.0,-100.00,SSW,202,6.0,11.0,97,-99.99,,,-99.99,,2013-06-04 06:52:00,
2013-06-04 03:02:00,72.0,71.0,-100.00,WSW,246,2.0,4.0,97,-99.99,,,-99.99,,2013-06-04 07:02:00,
2013-06-04 03:13:00,72.0,71.0,-100.00,WSW,246,2.0,4.0,97,-99.99,,,-99.99,,2013-06-04 07:13:00,
2013-06-04 03:22:00,72.0,71.0,-100.00,SW,236,1.0,3.0,97,-99.99,,,-99.99,,2013-06-04 07:22:00,
2013-06-04 03:32:00,72.0,71.0,-100.00,SW,236,1.0,3.0,97,-99.99,,,-99.99,,2013-06-04 07:32:00,
2013-06-04 03:42:00,72.0,71.0,-100.00,SSE,168,1.0,2.0,97,-99.99,,,-99.99,,2013-06-04 07:42:00,
2013-06-04 03:52:00,72.0,71.0,-100.00,SSE,168,1.0,2.0,97,-99.99,,,-99.99,,2013-06-04 07:52:00,
2013-06-04 04:02:00,71.0,71.0,-100.00,NW,315,2.0,4.0,97,-99.99,,,-99.99,,2013-06-04 08:02:00,
2013-06-04 04:12:00,71.0,71.0,-100.00,NW,315,2.0,4.0,97,-99.99,,,-99.99,,2013-06-04 08:12:00,
2013-06-04 04:22:00,71.0,71.0,-100.00,WNW,292,1.0,3.0,97,-99.99,,,-99.99,,2013-06-04 08:22:00,
2013-06-04 04:32:00,71.0,71.0,-100.00,WNW,292,1.0,3.0,97,-99.99,,,-99.99,,2013-06-04 08:32:00,
2013-06-04 04:42:00,71.0,71.0,-100.00,South,185,1.0,2.0,97,-99.99,,,-99.99,,2013-06-04 08:42:00,
2013-06-04 04:52:00,71.0,71.0,-100.00,South,185,1.0,2.0,97,-99.99,,,-99.99,,2013-06-04 08:52:00,
2013-06-04 05:02:00,71.0,71.0,-100.00,ESE,105,1.0,2.0,98,-99.99,,,-99.99,,2013-06-04 09:02:00,
2013-06-04 05:12:00,71.0,71.0,-100.00,ESE,105,1.0,2.0,98,-99.99,,,-99.99,,2013-06-04 09:12:00,
2013-06-04 05:22:00,71.0,70.0,-100.00,ENE,72,1.0,3.0,97,-99.99,,,-99.99,,2013-06-04 09:22:00,
2013-06-04 05:33:00,71.0,70.0,-100.00,ENE,72,1.0,3.0,97,-99.99,,,-99.99,,2013-06-04 09:33:00,
2013-06-04 05:43:00,71.0,71.0,-100.00,East,85,1.0,3.0,98,-99.99,,,-99.99,,2013-06-04 09:43:00,
2013-06-04 05:53:00,71.0,70.0,-100.00,East,97,2.0,4.0,98,-99.99,,,-99.99,,2013-06-04 09:53:00,
2013-06-04 06:03:00,71.0,70.0,-100.00,East,97,2.0,4.0,98,-99.99,,,-99.99,,2013-06-04 10:03:00,
2013-06-04 06:12:00,71.0,70.0,-100.00,East,97,2.0,4.0,98,-99.99,,,-99.99,,2013-06-04 10:12:00,
2013-06-04 06:23:00,71.0,70.0,-100.00,ESE,104,2.0,4.0,98,-99.99,,,-99.99,,2013-06-04 10:23:00,
2013-06-04 06:33:00,71.0,70.0,-100.00,ESE,104,2.0,4.0,98,-99.99,,,-99.99,,2013-06-04 10:33:00,
2013-06-04 06:42:00,71.0,70.0,-100.00,SE,133,1.0,3.0,98,-99.99,,,-99.99,,2013-06-04 10:42:00,
2013-06-04 06:53:00,71.0,70.0,-100.00,SE,133,1.0,3.0,98,-99.99,,,-99.99,,2013-06-04 10:53:00,
2013-06-04 07:02:00,71.0,70.0,-100.00,ESE,110,1.0,3.0,98,-99.99,,,-99.99,,2013-06-04 11:02:00,
2013-06-04 07:12:00,71.0,70.0,-100.00,ESE,110,1.0,3.0,98,-99.99,,,-99.99,,2013-06-04 11:12:00,
2013-06-04 07:22:00,71.0,70.0,-100.00,SE,131,2.0,3.0,98,-99.99,,,-99.99,,2013-06-04 11:22:00,
2013-06-04 07:32:00,71.0,70.0,-100.00,SE,131,2.0,3.0,98,-99.99,,,-99.99,,2013-06-04 11:32:00,
2013-06-04 07:42:00,71.0,70.0,-100.00,ESE,116,2.0,3.0,98,-99.99,,,-99.99,,2013-06-04 11:42:00,
2013-06-04 07:52:00,71.0,70.0,-100.00,ESE,116,2.0,3.0,98,-99.99,,,-99.99,,2013-06-04 11:52:00,
2013-06-04 08:02:00,71.0,70.0,-100.00,ENE,57,2.0,4.0,98,-99.99,,,-99.99,,2013-06-04 12:02:00,
2013-06-04 08:12:00,71.0,70.0,-100.00,ENE,57,2.0,4.0,98,-99.99,,,-99.99,,2013-06-04 12:12:00,
2013-06-04 08:22:00,71.0,70.0,-100.00,ENE,78,3.0,5.0,98,-99.99,,,-99.99,,2013-06-04 12:22:00,
2013-06-04 08:32:00,71.0,70.0,-100.00,ENE,78,3.0,5.0,98,-99.99,,,-99.99,,2013-06-04 12:32:00,
2013-06-04 08:42:00,71.0,70.0,-100.00,ENE,74,2.0,5.0,98,-99.99,,,-99.99,,2013-06-04 12:42:00,
2013-06-04 08:53:00,71.0,70.0,-100.00,ENE,74,2.0,5.0,98,-99.99,,,-99.99,,2013-06-04 12:53:00,
2013-06-04 09:03:00,71.0,71.0,-100.00,East,81,2.0,5.0,98,-99.99,,,-99.99,,2013-06-04 13:03:00,
2013-06-04 09:12:00,71.0,71.0,-100.00,East,81,2.0,5.0,98,-99.99,,,-99.99,,2013-06-04 13:12:00,
2013-06-04 09:22:00,71.0,71.0,-100.00,East,92,3.0,5.0,97,-99.99,,,-99.99,,2013-06-04 13:22:00,
2013-06-04 09:32:00,71.0,71.0,-100.00,East,92,3.0,5.0,97,-99.99,,,-99.99,,2013-06-04 13:32:00,
2013-06-04 09:42:00,72.0,71.0,-100.00,ESE,107,3.0,5.0,97,-99.99,,,-99.99,,2013-06-04 13:42:00,
2013-06-04 09:52:00,72.0,71.0,-100.00,ESE,107,3.0,5.0,97,-99.99,,,-99.99,,2013-06-04 13:52:00,
2013-06-04 10:02:00,73.0,72.0,-100.00,ESE,106,3.0,6.0,96,-99.99,,,-99.99,,2013-06-04 14:02:00,
2013-06-04 10:12:00,73.0,72.0,-100.00,ESE,108,3.0,6.0,95,-99.99,,,-99.99,,2013-06-04 14:12:00,
2013-06-04 10:22:00,73.0,72.0,-100.00,ESE,108,3.0,6.0,95,-99.99,,,-99.99,,2013-06-04 14:22:00,
2013-06-04 10:32:00,73.0,72.0,-100.00,ESE,108,3.0,6.0,95,-99.99,,,-99.99,,2013-06-04 14:32:00,
2013-06-04 10:42:00,73.0,72.0,-100.00,ESE,105,3.0,6.0,94,-99.99,,,-99.99,,2013-06-04 14:42:00,
2013-06-04 10:52:00,73.0,72.0,-100.00,ESE,105,3.0,6.0,94,-99.99,,,-99.99,,2013-06-04 14:52:00,
2013-06-04 11:02:00,74.0,72.0,-100.00,ESE,112,4.0,6.0,92,-99.99,,,-99.99,,2013-06-04 15:02:00,
2013-06-04 11:12:00,74.0,72.0,-100.00,ESE,112,4.0,6.0,92,-99.99,,,-99.99,,2013-06-04 15:12:00,
2013-06-04 11:22:00,75.0,73.0,-100.00,East,100,3.0,6.0,92,-99.99,,,-99.99,,2013-06-04 15:22:00,
2013-06-04 11:33:00,75.0,73.0,-100.00,East,100,3.0,6.0,92,-99.99,,,-99.99,,2013-06-04 15:33:00,
2013-06-04 11:42:00,75.0,72.0,-100.00,ESE,104,5.0,8.0,91,-99.99,,,-99.99,,2013-06-04 15:42:00,
2013-06-04 11:53:00,75.0,72.0,-100.00,ESE,104,5.0,8.0,91,-99.99,,,-99.99,,2013-06-04 15:53:00,
2013-06-04 12:03:00,76.0,73.0,-100.00,ESE,109,4.0,9.0,91,-99.99,,,-99.99,,2013-06-04 16:03:00,
2013-06-04 12:13:00,76.0,73.0,-100.00,ESE,109,4.0,9.0,91,-99.99,,,-99.99,,2013-06-04 16:13:00,
2013-06-04 12:23:00,77.0,74.0,-100.00,ESE,113,4.0,7.0,90,-99.99,,,-99.99,,2013-06-04 16:23:00,
2013-06-04 12:33:00,77.0,74.0,-100.00,ESE,113,4.0,7.0,90,-99.99,,,-99.99,,2013-06-04 16:33:00,
2013-06-04 12:42:00,77.0,74.0,-100.00,ESE,110,5.0,13.0,90,-99.99,,,-99.99,,2013-06-04 16:42:00,
2013-06-04 12:53:00,77.0,74.0,-100.00,ESE,110,5.0,13.0,90,-99.99,,,-99.99,,2013-06-04 16:53:00,
2013-06-04 13:03:00,77.0,74.0,-100.00,East,98,3.0,6.0,92,-99.99,,,-99.99,,2013-06-04 17:03:00,
2013-06-04 13:12:00,77.0,74.0,-100.00,East,98,3.0,6.0,92,-99.99,,,-99.99,,2013-06-04 17:12:00,
2013-06-04 13:23:00,77.0,74.0,-100.00,East,99,4.0,8.0,91,-99.99,,,-99.99,,2013-06-04 17:23:00,
2013-06-04 13:33:00,77.0,74.0,-100.00,East,99,4.0,8.0,91,-99.99,,,-99.99,,2013-06-04 17:33:00,
2013-06-04 13:42:00,77.0,74.0,-100.00,ESE,117,4.0,7.0,90,-99.99,,,-99.99,,2013-06-04 17:42:00,
2013-06-04 13:52:00,77.0,74.0,-100.00,ESE,117,4.0,7.0,90,-99.99,,,-99.99,,2013-06-04 17:52:00,
2013-06-04 14:02:00,78.0,74.0,-100.00,ESE,120,5.0,7.0,88,-99.99,,,-99.99,,2013-06-04 18:02:00,
2013-06-04 14:12:00,78.0,74.0,-100.00,ESE,120,5.0,7.0,88,-99.99,,,-99.99,,2013-06-04 18:12:00,
2013-06-04 14:22:00,79.0,75.0,-100.00,ESE,111,5.0,9.0,87,-99.99,,,-99.99,,2013-06-04 18:22:00,
2013-06-04 14:32:00,80.0,75.0,-100.00,ESE,102,4.0,7.0,86,-99.99,,,-99.99,,2013-06-04 18:32:00,
2013-06-04 14:42:00,80.0,75.0,-100.00,ESE,102,4.0,7.0,86,-99.99,,,-99.99,,2013-06-04 18:42:00,
2013-06-04 14:53:00,80.0,75.0,-100.00,ESE,102,4.0,7.0,86,-99.99,,,-99.99,,2013-06-04 18:53:00,
2013-06-04 15:02:00,80.0,75.0,-100.00,East,99,4.0,8.0,84,-99.99,,,-99.99,,2013-06-04 19:02:00,
2013-06-04 15:12:00,80.0,75.0,-100.00,East,99,4.0,8.0,84,-99.99,,,-99.99,,2013-06-04 19:12:00,
2013-06-04 15:22:00,80.0,75.0,-100.00,East,86,4.0,8.0,84,-99.99,,,-99.99,,2013-06-04 19:22:00,
2013-06-04 15:33:00,80.0,75.0,-100.00,East,86,4.0,8.0,84,-99.99,,,-99.99,,2013-06-04 19:33:00,
2013-06-04 15:42:00,80.0,75.0,-100.00,ESE,114,4.0,8.0,84,-99.99,,,-99.99,,2013-06-04 19:42:00,
2013-06-04 15:52:00,80.0,75.0,-100.00,ESE,114,4.0,8.0,84,-99.99,,,-99.99,,2013-06-04 19:52:00,
2013-06-04 16:03:00,80.0,76.0,-100.00,East,83,4.0,7.0,85,-99.99,,,-99.99,,2013-06-04 20:03:00,
2013-06-04 16:13:00,80.0,76.0,-100.00,East,83,4.0,7.0,85,-99.99,,,-99.99,,2013-06-04 20:13:00,
2013-06-04 16:22:00,81.0,76.0,-100.00,East,93,4.0,8.0,83,-99.99,,,-99.99,,2013-06-04 20:22:00,
2013-06-04 16:32:00,81.0,76.0,-100.00,East,93,4.0,8.0,83,-99.99,,,-99.99,,2013-06-04 20:32:00,
2013-06-04 16:42:00,81.0,75.0,-100.00,East,96,5.0,10.0,83,-99.99,,,-99.99,,2013-06-04 20:42:00,
2013-06-04 16:53:00,81.0,75.0,-100.00,East,96,5.0,10.0,83,-99.99,,,-99.99,,2013-06-04 20:53:00,
2013-06-04 17:02:00,80.0,75.0,-100.00,ESE,113,6.0,12.0,83,-99.99,,,-99.99,,2013-06-04 21:02:00,
2013-06-04 17:12:00,80.0,75.0,-100.00,ESE,113,6.0,12.0,83,-99.99,,,-99.99,,2013-06-04 21:12:00,
2013-06-04 17:22:00,79.0,73.0,-100.00,ESE,123,7.0,12.0,81,-99.99,,,-99.99,,2013-06-04 21:22:00,
2013-06-04 17:33:00,79.0,73.0,-100.00,ESE,123,7.0,12.0,81,-99.99,,,-99.99,,2013-06-04 21:33:00,
2013-06-04 17:42:00,79.0,74.0,-100.00,ESE,114,4.0,8.0,85,-99.99,,,-99.99,,2013-06-04 21:42:00,
2013-06-04 17:53:00,79.0,74.0,-100.00,ESE,114,4.0,8.0,85,-99.99,,,-99.99,,2013-06-04 21:53:00,
2013-06-04 18:02:00,78.0,74.0,-100.00,ESE,104,4.0,7.0,87,-99.99,,,-99.99,,2013-06-04 22:02:00,
2013-06-04 18:13:00,78.0,74.0,-100.00,ESE,104,4.0,7.0,87,-99.99,,,-99.99,,2013-06-04 22:13:00,
2013-06-04 18:22:00,78.0,74.0,-100.00,East,99,3.0,6.0,89,-99.99,,,-99.99,,2013-06-04 22:22:00,
2013-06-04 18:32:00,78.0,74.0,-100.00,East,99,3.0,6.0,89,-99.99,,,-99.99,,2013-06-04 22:32:00,
2013-06-04 18:42:00,78.0,75.0,-100.00,ESE,110,2.0,7.0,90,-99.99,,,-99.99,,2013-06-04 22:42:00,
2013-06-04 18:52:00,78.0,74.0,-100.00,East,89,4.0,9.0,88,-99.99,,,-99.99,,2013-06-04 22:52:00,
2013-06-04 19:02:00,78.0,74.0,-100.00,East,89,4.0,9.0,88,-99.99,,,-99.99,,2013-06-04 23:02:00,
2013-06-04 19:12:00,78.0,74.0,-100.00,East,89,4.0,9.0,88,-99.99,,,-99.99,,2013-06-04 23:12:00,
2013-06-04 19:22:00,77.0,74.0,-100.00,SE,125,2.0,5.0,88,-99.99,,,-99.99,,2013-06-04 23:22:00,
2013-06-04 19:32:00,77.0,74.0,-100.00,SE,125,2.0,5.0,88,-99.99,,,-99.99,,2013-06-04 23:32:00,
2013-06-04 19:42:00,77.0,74.0,-100.00,East,83,2.0,4.0,89,-99.99,,,-99.99,,2013-06-04 23:42:00,
2013-06-04 19:52:00,77.0,74.0,-100.00,East,83,2.0,4.0,89,-99.99,,,-99.99,,2013-06-04 23:52:00,
2013-06-04 20:02:00,77.0,74.0,-100.00,East,83,1.0,3.0,91,-99.99,,,-99.99,,2013-06-05 00:02:00,
2013-06-04 20:12:00,77.0,74.0,-100.00,East,83,1.0,3.0,91,-99.99,,,-99.99,,2013-06-05 00:12:00,
2013-06-04 20:22:00,77.0,74.0,-100.00,ENE,77,2.0,3.0,92,-99.99,,,-99.99,,2013-06-05 00:22:00,
2013-06-04 20:33:00,77.0,74.0,-100.00,ENE,77,2.0,3.0,92,-99.99,,,-99.99,,2013-06-05 00:33:00,
2013-06-04 20:42:00,76.0,74.0,-100.00,East,92,2.0,4.0,92,-99.99,,,-99.99,,2013-06-05 00:42:00,
2013-06-04 20:52:00,76.0,74.0,-100.00,East,92,2.0,4.0,92,-99.99,,,-99.99,,2013-06-05 00:52:00,
2013-06-04 21:02:00,76.0,74.0,-100.00,East,87,1.0,2.0,93,-99.99,,,-99.99,,2013-06-05 01:02:00,
2013-06-04 21:12:00,76.0,74.0,-100.00,East,87,1.0,2.0,93,-99.99,,,-99.99,,2013-06-05 01:12:00,
2013-06-04 21:22:00,75.0,74.0,-100.00,East,86,1.0,3.0,95,-99.99,,,-99.99,,2013-06-05 01:22:00,
2013-06-04 21:32:00,75.0,74.0,-100.00,ESE,105,2.0,4.0,95,-99.99,,,-99.99,,2013-06-05 01:32:00,
2013-06-04 21:42:00,75.0,74.0,-100.00,ESE,105,2.0,4.0,95,-99.99,,,-99.99,,2013-06-05 01:42:00,
2013-06-04 21:52:00,75.0,74.0,-100.00,ESE,105,2.0,4.0,95,-99.99,,,-99.99,,2013-06-05 01:52:00,
2013-06-04 22:02:00,75.0,74.0,-100.00,East,85,3.0,6.0,95,-99.99,,,-99.99,,2013-06-05 02:02:00,
2013-06-04 22:12:00,75.0,74.0,-100.00,East,85,3.0,6.0,95,-99.99,,,-99.99,,2013-06-05 02:12:00,
2013-06-04 22:22:00,75.0,74.0,-100.00,East,101,4.0,6.0,95,-99.99,,,-99.99,,2013-06-05 02:22:00,
2013-06-04 22:32:00,75.0,74.0,-100.00,East,101,4.0,6.0,95,-99.99,,,-99.99,,2013-06-05 02:32:00,
2013-06-04 22:42:00,75.0,73.0,-100.00,East,98,4.0,7.0,94,-99.99,,,-99.99,,2013-06-05 02:42:00,
2013-06-04 22:52:00,75.0,73.0,-100.00,East,98,4.0,7.0,94,-99.99,,,-99.99,,2013-06-05 02:52:00,
2013-06-04 23:02:00,75.0,73.0,-100.00,East,81,4.0,7.0,93,-99.99,,,-99.99,,2013-06-05 03:02:00,
2013-06-04 23:12:00,75.0,73.0,-100.00,East,81,4.0,7.0,93,-99.99,,,-99.99,,2013-06-05 03:12:00,
2013-06-04 23:22:00,75.0,73.0,-100.00,East,81,4.0,7.0,93,-99.99,,,-99.99,,2013-06-05 03:22:00,
2013-06-04 23:33:00,75.0,73.0,-100.00,East,81,4.0,7.0,93,-99.99,,,-99.99,,2013-06-05 03:33:00,
2013-06-04 23:43:00,75.0,73.0,-100.00,East,100,3.0,6.0,92,-99.99,,,-99.99,,2013-06-05 03:43:00,
2013-06-04 23:53:00,75.0,73.0,-100.00,East,100,3.0,6.0,92,-99.99,,,-99.99,,2013-06-05 03:53:00,